• în Republica Moldova
  • Lista ţărilor
  • Pe 7 zile
  • Temperatura apei
  • Hartă satelitară
  • Meteo pe hartă
  • Widget-uri
  • user-avatar
    Intrare

    Meteo pe oră la Canberra

    Astăzi, 16 August, Joi

    Timp Temperatura Precipitaţii Vânt Presiune Umiditate
    00:00 +9°C° 0 mm 5 m/s 704 mmHg 67%
    01:00 +8°C° 0 mm 5 m/s 704 mmHg 73%
    02:00 +7°C° 0 mm 5 m/s 704 mmHg 74%
    03:00 +6°C° 0 mm 5 m/s 704 mmHg 76%
    04:00 +6°C° 0 mm 4 m/s 704 mmHg 78%
    05:00 +5°C° 0 mm 4 m/s 704 mmHg 80%
    06:00 +4°C° 0 mm 4 m/s 704 mmHg 81%
    07:00 +4°C° 0 mm 4 m/s 705 mmHg 83%
    08:00 +5°C° 0 mm 4 m/s 705 mmHg 73%
    09:00 +7°C° 0 mm 4 m/s 705 mmHg 63%
    10:00 +10°C° 0 mm 4 m/s 706 mmHg 54%
    11:00 +11°C° 0 mm 4 m/s 706 mmHg 50%
    12:00 +11°C° 0 mm 4 m/s 706 mmHg 47%
    13:00 +12°C° 0 mm 4 m/s 705 mmHg 43%
    14:00 +12°C° 0 mm 4 m/s 705 mmHg 45%
    15:00 +11°C° 0 mm 4 m/s 705 mmHg 47%
    16:00 +10°C° 0 mm 4 m/s 705 mmHg 50%
    17:00 +8°C° 0 mm 4 m/s 706 mmHg 58%
    18:00 +7°C° 0 mm 3 m/s 706 mmHg 66%
    19:00 +4°C° 0 mm 3 m/s 706 mmHg 74%
    20:00 +4°C° 0 mm 2 m/s 706 mmHg 77%
    21:00 +4°C° 0 mm 2 m/s 707 mmHg 81%
    22:00 +3°C° 0 mm 2 m/s 707 mmHg 84%
    23:00 +2°C° 0 mm 2 m/s 707 mmHg 85%

    Mâine, 17 August, Vineri

    Timp Temperatura Precipitaţii Vânt Presiune Umiditate
    00:00 +3°C° 0 mm 1 m/s 707 mmHg 86%
    01:00 +2°C° 0 mm 1 m/s 707 mmHg 87%
    02:00 +2°C° 0 mm 1 m/s 707 mmHg 88%
    03:00 +2°C° 0 mm 1 m/s 707 mmHg 88%
    04:00 +2°C° 0 mm 1 m/s 707 mmHg 89%
    05:00 +2°C° 0 mm 1 m/s 707 mmHg 89%
    06:00 +2°C° 0 mm 1 m/s 707 mmHg 90%
    07:00 +2°C° 0 mm 1 m/s 707 mmHg 91%
    08:00 +3°C° 0 mm 2 m/s 707 mmHg 78%
    09:00 +6°C° 0 mm 2 m/s 708 mmHg 65%
    10:00 +9°C° 0 mm 3 m/s 708 mmHg 52%
    11:00 +10°C° 0 mm 3 m/s 707 mmHg 49%
    12:00 +11°C° 0 mm 3 m/s 707 mmHg 46%
    13:00 +12°C° 0 mm 4 m/s 707 mmHg 44%
    14:00 +11°C° 0 mm 4 m/s 706 mmHg 46%
    15:00 +11°C° 0 mm 4 m/s 706 mmHg 49%
    16:00 +10°C° 0 mm 4 m/s 706 mmHg 51%
    17:00 +7°C° 0 mm 4 m/s 706 mmHg 59%
    18:00 +5°C° 0 mm 3 m/s 706 mmHg 67%
    19:00 +4°C° 0 mm 3 m/s 706 mmHg 75%
    20:00 +3°C° 0 mm 3 m/s 706 mmHg 76%
    21:00 +3°C° 0 mm 3 m/s 706 mmHg 78%
    22:00 +3°C° 0 mm 2 m/s 706 mmHg 80%
    23:00 +3°C° 0 mm 2 m/s 706 mmHg 81%

    Poimâine, 18 August, Sâmbătă

    Timp Temperatura Precipitaţii Vânt Presiune Umiditate
    00:00 +3°C° 0 mm 2 m/s 706 mmHg 81%
    01:00 +3°C° 0 mm 2 m/s 705 mmHg 82%
    02:00 +2°C° 0 mm 3 m/s 705 mmHg 82%
    03:00 +2°C° 0 mm 3 m/s 704 mmHg 82%
    04:00 +1°C° 0 mm 3 m/s 704 mmHg 82%
    05:00 +1°C° 0 mm 4 m/s 703 mmHg 79%
    06:00 +3°C° 0 mm 4 m/s 703 mmHg 75%
    07:00 +3°C° 0 mm 5 m/s 703 mmHg 71%
    08:00 +4°C° 0,2 mm 6 m/s 703 mmHg 68%
    09:00 +5°C° 0,2 mm 6 m/s 703 mmHg 65%
    10:00 +8°C° 0,2 mm 7 m/s 703 mmHg 62%
    11:00 +6°C° 0,7 mm 7 m/s 703 mmHg 69%
    12:00 +5°C° 0,7 mm 6 m/s 702 mmHg 75%
    13:00 +5°C° 0,7 mm 6 m/s 702 mmHg 81%
    14:00 +5°C° 0,3 mm 6 m/s 702 mmHg 79%
    15:00 +5°C° 0,3 mm 6 m/s 702 mmHg 76%
    16:00 +5°C° 0,3 mm 6 m/s 702 mmHg 73%
    17:00 +5°C° 0,1 mm 5 m/s 703 mmHg 76%
    18:00 +3°C° 0,1 mm 5 m/s 703 mmHg 80%
    19:00 +3°C° 0,1 mm 4 m/s 704 mmHg 83%
    20:00 +3°C° 0,1 mm 4 m/s 704 mmHg 83%
    21:00 +3°C° 0,1 mm 4 m/s 704 mmHg 83%
    22:00 +1°C° 0,1 mm 5 m/s 704 mmHg 82%
    23:00 +1°C° 0,1 mm 5 m/s 704 mmHg 82%

    19 August, Duminică

    Timp Temperatura Precipitaţii Vânt Presiune Umiditate
    00:00 +1°C° 0,1 mm 5 m/s 704 mmHg 82%
    01:00 +1°C° 0,1 mm 5 m/s 704 mmHg 82%
    02:00 0°C° 0,1 mm 5 m/s 704 mmHg 80%
    03:00 0°C° 0,1 mm 5 m/s 703 mmHg 78%
    04:00 -1°C° 0,1 mm 6 m/s 703 mmHg 76%
    05:00 -1°C° 0 mm 6 m/s 704 mmHg 76%
    06:00 -1°C° 0 mm 6 m/s 704 mmHg 76%
    07:00 -1°C° 0 mm 6 m/s 704 mmHg 77%
    08:00 +1°C° 0 mm 6 m/s 705 mmHg 71%
    09:00 +3°C° 0 mm 6 m/s 705 mmHg 66%
    10:00 +4°C° 0 mm 7 m/s 706 mmHg 60%
    11:00 +5°C° 0 mm 7 m/s 706 mmHg 57%
    12:00 +5°C° 0 mm 7 m/s 706 mmHg 54%
    13:00 +6°C° 0 mm 7 m/s 706 mmHg 51%
    14:00 +6°C° 0 mm 7 m/s 706 mmHg 51%
    15:00 +7°C° 0 mm 6 m/s 706 mmHg 51%
    16:00 +5°C° 0 mm 6 m/s 706 mmHg 51%
    17:00 +5°C° 0 mm 5 m/s 707 mmHg 57%
    18:00 +3°C° 0 mm 4 m/s 707 mmHg 64%
    19:00 0°C° 0 mm 4 m/s 708 mmHg 70%
    20:00 +1°C° 0 mm 3 m/s 708 mmHg 72%
    21:00 0°C° 0 mm 3 m/s 708 mmHg 74%
    22:00 0°C° 0 mm 3 m/s 709 mmHg 76%
    23:00 0°C° 0 mm 3 m/s 709 mmHg 78%

    20 August, Luni

    Timp Temperatura Precipitaţii Vânt Presiune Umiditate
    00:00 -1°C° 0 mm 3 m/s 709 mmHg 80%
    01:00 -1°C° 0 mm 3 m/s 709 mmHg 82%
    02:00 -1°C° 0 mm 3 m/s 709 mmHg 84%
    03:00 -2°C° 0 mm 2 m/s 709 mmHg 86%
    04:00 -2°C° 0 mm 2 m/s 709 mmHg 88%
    05:00 -2°C° 0 mm 2 m/s 710 mmHg 89%
    06:00 -3°C° 0 mm 2 m/s 710 mmHg 90%
    07:00 -3°C° 0 mm 2 m/s 710 mmHg 91%
    08:00 +1°C° 0 mm 2 m/s 711 mmHg 78%
    09:00 +3°C° 0 mm 2 m/s 711 mmHg 64%
    10:00 +5°C° 0 mm 3 m/s 712 mmHg 51%
    11:00 +7°C° 0 mm 3 m/s 711 mmHg 47%
    12:00 +9°C° 0 mm 3 m/s 711 mmHg 44%
    13:00 +10°C° 0 mm 3 m/s 711 mmHg 40%
    14:00 +10°C° 0 mm 3 m/s 710 mmHg 43%
    15:00 +9°C° 0 mm 3 m/s 710 mmHg 47%
    16:00 +8°C° 0 mm 4 m/s 709 mmHg 50%
    17:00 +7°C° 0 mm 3 m/s 709 mmHg 60%
    18:00 +4°C° 0 mm 3 m/s 710 mmHg 69%
    19:00 +2°C° 0 mm 3 m/s 710 mmHg 79%
    20:00 +2°C° 0 mm 3 m/s 710 mmHg 82%
    21:00 +1°C° 0 mm 3 m/s 709 mmHg 85%
    22:00 +1°C° 0 mm 3 m/s 709 mmHg 88%
    23:00 +1°C° 0 mm 3 m/s 709 mmHg 87%

    21 August, Marţi

    Timp Temperatura Precipitaţii Vânt Presiune Umiditate
    00:00 +1°C° 0 mm 3 m/s 709 mmHg 86%
    01:00 +1°C° 0 mm 3 m/s 708 mmHg 85%
    02:00 0°C° 0 mm 4 m/s 708 mmHg 84%
    03:00 0°C° 0 mm 4 m/s 708 mmHg 83%
    04:00 0°C° 0 mm 4 m/s 707 mmHg 82%
    05:00 +1°C° 0 mm 4 m/s 708 mmHg 82%
    06:00 +1°C° 0 mm 4 m/s 708 mmHg 82%
    07:00 +1°C° 0 mm 4 m/s 708 mmHg 82%
    08:00 +2°C° 0 mm 5 m/s 708 mmHg 77%
    09:00 +5°C° 0 mm 5 m/s 708 mmHg 72%
    10:00 +7°C° 0 mm 6 m/s 708 mmHg 67%
    11:00 +7°C° 0 mm 6 m/s 707 mmHg 66%
    12:00 +7°C° 0 mm 6 m/s 707 mmHg 65%
    13:00 +8°C° 0 mm 6 m/s 706 mmHg 63%
    14:00 +8°C° 0 mm 6 m/s 706 mmHg 64%
    15:00 +7°C° 0 mm 5 m/s 706 mmHg 64%
    16:00 +7°C° 0 mm 5 m/s 706 mmHg 64%
    17:00 +6°C° 0 mm 4 m/s 706 mmHg 72%
    18:00 +5°C° 0 mm 3 m/s 706 mmHg 79%
    19:00 +4°C° 0 mm 2 m/s 707 mmHg 87%
    20:00 +4°C° 0 mm 2 m/s 707 mmHg 89%
    21:00 +4°C° 0 mm 2 m/s 707 mmHg 91%
    22:00 +4°C° 0 mm 2 m/s 707 mmHg 94%
    23:00 +4°C° 0 mm 2 m/s 707 mmHg 93%
    Arată mai mult